STARLINK-2338, 47793

Orbit data source: Space-Track

STARLINK-2338, 47793 is a payload satellite owned by SpaceX/Seattle (US) in LEO that was launched on Thu, 11 Mar 2021 UTC via an FALCON 9 launch vehicle from the Air Force Eastern Test Range (AFETR). Payload-class satellites include a variety of spacecraft equipped with specific instruments for various scientific and technological missions. These include communications satellites like Starlink; space stations such as the ISS; scientific satellites like the Hubble; Earth observation satellites from companies like Planet Labs, Umbra, and HawkEye 360; GPS; miniature CubeSats for education and research; and military/defense satellites.

Loading next visibility...
Identifier
47793, 2021-018G
Orbit
LEO
Country
Flag of USUS
Related business
Manufacturer
SpaceX/Seattle
Mission
Operational Commercial Communications
Bus & Motor
STARLINK, Unknown motor
Mass
260 kg wet, ~248 kg dry
Launch date (UTC)
2021-03-11 (5 years ago)
Launch vehicle
FALCON 9
Launch site
Air Force Eastern Test Range (AFETR)
Object type
Payload
Rocket body
Debris
Shape & HBR
Box + 1 Pan, 10.1 m
Radar Cross Section
13.562 m², Large (>1 m²)

Expand to show TLE details & history
Last TLE update: 3 days ago

TLE from 3 days ago
0 STARLINK-2338
1 47793U 21018G   26170.89711109 -.00002486  00000-0 -68357-4 0  9999
2 47793  53.1601 123.6517 0001365 101.6758 258.4397 15.31700554292413
Epoch: 2026-06-19T21:31Z
TLE epoch observation values (Epoch: 2026-06-19T21:31:50.398Z)
Latitude
0.00002°
Longitude
-107.42777°
Altitude
471.826 km
Speed
7.631 km/s
True Right ascension
08h 14m 36s
True Declination
0° 00' 00"
Sunlit
Object was in daylight at epoch
Visualization orbit readout
Latitude
Unknown
Longitude
Unknown
Altitude
Unknown
Speed
Unknown
Apparent Right ascension
Unknown
Apparent Declination
Unknown
Sunlit
N/A
Visualization observer readout
Local Sidereal Time
23:21:54
Azimuth
Unknown
Elevation
Unknown
Doppler factor
Unknown
Orbital elements
Apogee altitude
471.93 km
Perigee altitude
470.06 km
Semi-major axis
6,849.132 km
Eccentricity
0.00014
Inclination
53.1601°
RAAN
123.6517°
Arg. of periapsis
101.6758°
True anomaly
258.42438°
Mean anomaly
258.4397°
Eccentric anomaly
258.43204°
Mean motion
3.82904 °/min
Orbital period
94.02 mins
BSTAR
-0.000068357
Loading maneuver chart data...
Computing Atmospheric mass density...
Loading historical data...
Loading historical data...
Loading historical data...
Loading historical data...
Loading historical data...
Loading historical data...
Loading historical data...

Documentation

Showing up to 5 results
|